Location: Downe
(51.3167°N, 0.0500°E)
Time: 10:21:32
(UTC+00:00)

Cosmos 2173 Rocket - Pass Details

Date: 17 November 2019
Orbit: 944 x 1001 km, 83.0° (Epoch: 09 December)

Event Time Altitude Azimuth Distance (km) Brightness Sun altitude
Rises 05:14:34 0° 190° (S) 3,679 7.0 -19.3°
Reaches altitude 10° 05:17:05 10° 191° (SSW) 2,727 6.3 -18.9°
Maximum altitude 05:23:20 82° 279° (W) 985 3.9 -17.9°
Drops below altitude 10° 05:29:34 10° 9° (N) 2,705 6.3 -17.0°
Sets 05:32:03 0° 10° (N) 3,648 7.0 -16.6°
